sat.trackr.live / text

‹ back to catalog

UNKNOWN

NORAD 87690

UNKNOWN UNKNOWN UNKNOWN

§ Identity

Operator
Country
Launch date
Launch site
Launch vehicle
Mass (kg)
RCS (m²)

External: N2YO · Heavens-Above

§ Orbital elements

Epoch: 2026-09-14T23:25:21.626400Z

Period
102.63 min
Inclination
65.7948°
Eccentricity
0.0585680
Mean motion
14.03102741 rev/d
Perigee alt
457.8 km
Apogee alt
1,308.3 km
Semi-major
7,261.2 km
B*
5.7424e-4
RAAN
353.7944°
Arg perigee
267.4386°
Mean anomaly
85.9557°
Rev number
64,610

§ Raw data

UNKNOWN1 87690U          26257.97594475  .00004199  00000+0  57424-3 0  99992 87690  65.7948 353.7944 0585680 267.4386  85.9557 14.03102741646103

JSON: /api/v1/satellites/87690 · /tle

For live sub-satellite position, see the globe view (requires WebGL).

§ Visibility from observer

Set your observer location to see the next 7 days of passes ≥ 10°. The values pass through the URL so the page stays shareable.

No JS? Fill the form by hand. The geolocation button needs JavaScript.